Weather History for Douglas, WY

Change the Weather History Date:

Thursday, January 24, 2013

  Actual Average Record
Temperature  
Mean Temperature 42 °F 25 °F  
Max Temperature 58 °F 39 °F 62 °F (2005)
Min Temperature 26 °F 12 °F -17 °F (2008)
Degree Days  
Heating Degree Days 23 40  
Month to date heating degree days 960 962  
Since 1 July heating degree days 3681 4051  
Cooling Degree Days 0 0  
Month to date cooling degree days 0 0  
Year to date cooling degree days 0 0  
Moisture  
Dew Point 20 °F    
Average Humidity 51    
Maximum Humidity 78    
Minimum Humidity 24    
Precipitation  
Precipitation 0.00 in 0.02 in 0.21 in (2009)
Month to date precipitation T 0.26  
Year to date precipitation T 0.26  
Sea Level Pressure  
Sea Level Pressure 29.98 in    
Wind  
Wind Speed 15 mph (WNW)    
Max Wind Speed 44 mph    
Max Gust Speed 52 mph    
Visibility 10 miles    
Events      
T = Trace of Precipitation, MM = Missing Value Source: NWS Daily Summary

Daily Weather History Graph

Daily Weather History Graph

Search for Another Location

Airport:

Trip Planner

Search our weather history database for the weather conditions in past years. The results will help you decide how hot, cold, wet, or windy it might be!

Date:

Astronomy

Jan. 24, 2013 Rise Set
Actual Time 7:23 AM MST 5:04 PM MST
Civil Twilight 6:52 AM MST 5:35 PM MST
Nautical Twilight 6:18 AM MST 6:09 PM MST
Astronomical Twilight 5:44 AM MST 6:43 PM MST
Moon 3:08 PM MST (1/24) 5:23 AM MST (1/24)
Length of Visible Light 10h 42m
Length of Day
9h 41m
Waxing Gibbous, 95% of the Moon is Illuminated
Jan 24
Waxing Gibbous
Jan 26
Full
Feb 3
Last Quarter
Feb 10
New
Feb 17
First Quarter

Hourly Weather History & Observations

Time (MST) Temp. Windchill Dew Point Humidity Pressure Visibility Wind Dir Wind Speed Gust Speed Precip Events Conditions
12:53 AM 35.1 °F 28.6 °F 9.0 °F 34% 29.99 in 10.0 mi ENE 8.1 mph - N/A   Clear
1:53 AM 34.0 °F - 10.0 °F 37% 29.98 in 10.0 mi Calm Calm - N/A   Clear
2:53 AM 39.9 °F 34.5 °F 10.0 °F 29% 29.96 in 10.0 mi West 8.1 mph - N/A   Clear
3:53 AM 39.9 °F 32.9 °F 10.9 °F 31% 29.95 in 10.0 mi WNW 11.5 mph - N/A   Clear
4:53 AM 37.9 °F - 10.0 °F 32% 29.98 in 10.0 mi Calm Calm - N/A   Clear
5:53 AM 43.0 °F 37.7 °F 12.0 °F 28% 29.97 in 10.0 mi WNW 9.2 mph - N/A   Clear
6:53 AM 46.9 °F - 12.9 °F 25% 29.97 in 10.0 mi WNW 12.7 mph 20.7 mph N/A   Partly Cloudy
7:53 AM 48.0 °F - 14.0 °F 26% 29.96 in 10.0 mi NW 11.5 mph - N/A   Clear
8:53 AM 45.0 °F 42.6 °F 15.1 °F 30% 29.97 in 10.0 mi North 4.6 mph - N/A   Clear
9:53 AM 54.0 °F - 24.1 °F 31% 29.94 in 10.0 mi West 27.6 mph 46.0 mph N/A   Clear
10:53 AM 55.0 °F - 25.0 °F 31% 29.94 in 10.0 mi West 26.5 mph 35.7 mph N/A   Clear
11:53 AM 55.9 °F - 26.1 °F 32% 29.89 in 10.0 mi West 33.4 mph 48.3 mph N/A   Clear
12:53 PM 57.9 °F - 26.1 °F 30% 29.86 in 10.0 mi West 35.7 mph 50.6 mph N/A   Clear
1:53 PM 55.0 °F - 27.0 °F 34% 29.88 in 10.0 mi West 33.4 mph 47.2 mph N/A   Clear
2:53 PM 53.1 °F - 27.0 °F 37% 29.90 in 10.0 mi West 31.1 mph 44.9 mph N/A   Partly Cloudy
3:53 PM 51.1 °F - 27.0 °F 39% 29.91 in 10.0 mi West 32.2 mph 44.9 mph N/A   Partly Cloudy
4:53 PM 48.9 °F - 28.0 °F 44% 29.96 in 10.0 mi West 25.3 mph 34.5 mph N/A   Partly Cloudy
5:53 PM 48.0 °F - 28.0 °F 46% 30.00 in 10.0 mi West 19.6 mph - N/A   Partly Cloudy
6:53 PM 39.9 °F 36.7 °F 27.0 °F 60% 30.04 in 10.0 mi West 4.6 mph - N/A   Clear
7:53 PM 35.1 °F 29.3 °F 25.0 °F 67% 30.08 in 10.0 mi WNW 6.9 mph - N/A   Clear
8:53 PM 34.0 °F 31.0 °F 21.9 °F 61% 30.11 in 10.0 mi NNW 3.5 mph - N/A   Clear
9:53 PM 30.0 °F 23.2 °F 21.9 °F 72% 30.10 in 10.0 mi WNW 6.9 mph - N/A   Clear
10:53 PM 30.9 °F 24.3 °F 24.1 °F 76% 30.11 in 10.0 mi NNW 6.9 mph - N/A   Clear
11:53 PM 30.0 °F 24.1 °F 25.0 °F 82% 30.11 in 10.0 mi WNW 5.8 mph - N/A   Clear